FW8067 Weather Reports


time (UTC)temp
C
wind
direction
speed
KPH
gust
KPH
rain 1hr
cm
rain 24hr
cm
rain mn
cm
humidity
%
barometer
mb
20260508214308 11 248 0.0 0.0 0.00 0.00 0.00 44 998.7
20260508213809 11 225 0.0 0.0 0.00 0.00 0.00 44 998.5
20260508213309 11 248 0.0 0.0 0.00 0.00 0.00 41 998.5
20260508212809 11 248 0.0 0.0 0.00 0.00 0.00 40 998.4
20260508212308 12 293 0.0 0.0 0.00 0.00 0.00 41 998.6
20260508211808 12 270 0.0 0.0 0.00 0.00 0.00 37 998.3
20260508211308 12 248 0.0 0.0 0.00 0.00 0.00 37 998.5
20260508210809 13 225 0.0 0.0 0.00 0.00 0.00 36 998.5
20260508210308 13 225 0.0 0.0 0.00 0.00 0.00 34 998.3
20260508205804 13 248 0.0 0.0 0.00 0.00 0.00 32 998.3
20260508205305 13 293 0.0 0.0 0.00 0.00 0.00 34 998.3
20260508204758 14 248 0.0 0.0 0.00 0.00 0.00 33 998.3
20260508204255 14 248 0.0 0.0 0.00 0.00 0.00 32 998.4
20260508203752 14 225 0.0 0.0 0.00 0.00 0.00 32 998.3
20260508203250 14 203 0.0 0.0 0.00 0.00 0.00 33 998.5
20260508202747 14 203 0.0 0.0 0.00 0.00 0.00 30 998.5
20260508202244 14 248 0.0 0.0 0.00 0.00 0.00 29 998.3
20260508201236 15 225 0.0 0.0 0.00 0.00 0.00 27 998.3
20260508200737 15 248 0.0 0.0 0.00 0.00 0.00 27 998.5
20260508195802 15 225 0.0 0.0 0.00 0.00 0.00 27 998.5
20260508194736 15 248 0.0 0.0 0.00 0.00 0.00 27 998.2
20260508194237 15 225 0.0 0.0 0.00 0.00 0.00 28 998.3
20260508193736 15 225 0.0 0.0 0.00 0.00 0.00 28 998.4
20260508193237 15 248 0.0 0.0 0.00 0.00 0.00 28 998.1
20260508192758 15 248 0.0 0.0 0.00 0.00 0.00 26 998.4
20260508192236 15 225 0.0 0.0 0.00 0.00 0.00 26 998.4
20260508191737 15 248 0.0 0.0 0.00 0.00 0.00 27 998.2
20260508191236 15 248 0.0 0.0 0.00 0.00 0.00 25 998.0
20260508190736 15 225 0.0 0.0 0.00 0.00 0.00 26 998.3
20260508190236 15 248 0.0 0.0 0.00 0.00 0.00 28 998.4
20260508185740 15 270 0.0 0.0 0.00 0.00 0.00 26 998.1
20260508185238 15 225 0.0 0.0 0.00 0.00 0.00 27 997.9
20260508184736 15 248 0.0 0.0 0.00 0.00 0.00 25 998.1
20260508184236 15 225 0.0 0.0 0.00 0.00 0.00 26 998.2
20260508183236 14 225 0.0 0.0 0.00 0.00 0.00 26 998.3
20260508182738 14 225 0.0 0.0 0.00 0.00 0.00 28 998.4
20260508181736 14 248 0.0 0.0 0.00 0.00 0.00 26 998.6
20260508181236 13 225 0.0 0.0 0.00 0.00 0.00 27 998.6
20260508180736 14 225 0.0 0.0 0.00 0.00 0.00 25 998.8
20260508180238 14 248 0.0 0.0 0.00 0.00 0.00 26 998.8
20260508175736 15 225 0.0 0.0 0.00 0.00 0.00 25 998.9
20260508175236 15 248 0.0 0.0 0.00 0.00 0.00 27 998.9
20260508174237 15 225 0.0 0.0 0.00 0.00 0.00 26 998.9
20260508173735 15 225 0.0 0.0 0.00 0.00 0.00 25 999.0
20260508173232 15 248 0.0 0.0 0.00 0.00 0.00 27 999.2
20260508172729 15 248 0.0 0.0 0.00 0.00 0.00 25 999.1
20260508172226 14 225 0.0 0.0 0.00 0.00 0.00 26 999.1
20260508171222 14 270 0.0 0.0 0.00 0.00 0.00 25 999.3
20260508170708 13 225 0.0 0.0 0.00 0.00 0.00 25 999.3
20260508170208 14 203 0.0 0.0 0.00 0.00 0.00 26 999.6
20260508165708 14 225 0.0 0.0 0.00 0.00 0.00 23 999.6
20260508165208 14 225 0.0 0.0 0.00 0.00 0.00 22 999.6
20260508164708 13 225 0.0 0.0 0.00 0.00 0.00 19 999.7
20260508164208 14 225 0.0 0.0 0.00 0.00 0.00 20 999.6
20260508163708 14 225 0.0 0.0 0.00 0.00 0.00 24 999.9
20260508162708 14 270 0.0 0.0 0.00 0.00 0.00 30 999.9
20260508162207 13 270 0.0 0.0 0.00 0.00 0.00 30 1000.0
20260508161707 13 248 0.0 0.0 0.00 0.00 0.00 31 1000.1
20260508161208 13 248 0.0 0.0 0.00 0.00 0.00 31 1000.3
20260508160208 13 248 0.0 0.0 0.00 0.00 0.00 34 1000.4
20260508155708 13 180 0.0 0.0 0.00 0.00 0.00 34 1000.0
20260508155209 13 225 0.0 0.0 0.00 0.00 0.00 36 1000.2
20260508154708 13 225 0.0 0.0 0.00 0.00 0.00 34 1000.1
20260508153709 13 248 0.0 0.0 0.00 0.00 0.00 33 1000.4
20260508153208 13 248 0.0 0.0 0.00 0.00 0.00 35 1000.5
20260508152708 12 225 0.0 0.0 0.00 0.00 0.00 36 1000.4
20260508152208 12 225 0.0 0.0 0.00 0.00 0.00 36 1000.6
20260508151709 12 225 0.0 0.0 0.00 0.00 0.00 36 1000.7
20260508151208 12 225 0.0 0.0 0.00 0.00 0.00 36 1000.5
20260508150708 12 248 0.0 0.0 0.00 0.00 0.00 35 1000.7
20260508150208 12 225 0.0 0.0 0.00 0.00 0.00 37 1000.9
20260508145208 12 248 0.0 0.0 0.00 0.00 0.00 39 1001.2
20260508144208 12 248 0.0 0.0 0.00 0.00 0.00 41 1001.1
20260508143708 11 248 0.0 0.0 0.00 0.00 0.00 41 1001.1
20260508142707 11 225 0.0 0.0 0.00 0.00 0.00 41 1001.2
20260508141530 11 225 0.0 0.0 0.00 0.00 0.00 42 1001.6
20260508141029 11 203 0.0 0.0 0.00 0.00 0.00 43 1001.6
20260508140029 11 248 0.0 0.0 0.00 0.00 0.00 44 1001.5
20260508135529 10 225 0.0 0.0 0.00 0.00 0.00 42 1001.7
20260508135029 10 225 0.0 0.0 0.00 0.00 0.00 41 1001.7
20260508134529 10 225 0.0 0.0 0.00 0.00 0.00 42 1001.8
20260508134029 10 225 0.0 0.0 0.00 0.00 0.00 41 1001.9
20260508133530 10 248 0.0 0.0 0.00 0.00 0.00 42 1001.9
20260508133028 10 248 0.0 0.0 0.00 0.00 0.00 43 1001.6
20260508132530 10 203 0.0 0.0 0.00 0.00 0.00 43 1001.7
20260508132029 10 225 0.0 0.0 0.00 0.00 0.00 44 1001.7
20260508131530 10 225 0.0 0.0 0.00 0.00 0.00 43 1001.7
20260508131030 9 203 0.0 0.0 0.00 0.00 0.00 45 1001.7
20260508130529 9 248 0.0 0.0 0.00 0.00 0.00 46 1001.7
20260508125530 8 225 0.0 0.0 0.00 0.00 0.00 47 1001.7
20260508125029 8 248 0.0 0.0 0.00 0.00 0.00 46 1001.5
20260508124531 8 225 0.0 0.0 0.00 0.00 0.00 47 1001.7
20260508123529 8 248 0.0 0.0 0.00 0.00 0.00 49 1001.5
20260508123030 8 248 0.0 0.0 0.00 0.00 0.00 50 1001.3
20260508122529 8 225 0.0 0.0 0.00 0.00 0.00 50 1001.4
20260508122030 7 225 0.0 0.0 0.00 0.00 0.00 50 1001.3
20260508121529 7 315 0.0 0.0 0.00 0.00 0.00 51 1001.2
20260508121029 7 270 0.0 0.0 0.00 0.00 0.00 51 1001.2
20260508120528 7 248 0.0 0.0 0.00 0.00 0.00 52 1001.3
20260508120030 7 225 0.0 0.0 0.00 0.00 0.00 53 1001.2
20260508115530 7 270 0.0 0.0 0.00 0.00 0.00 54 1001.0
20260508115029 7 270 0.0 0.0 0.00 0.00 0.00 53 1000.9
20260508113529 6 248 0.0 0.0 0.00 0.00 0.00 55 1000.7
20260508113030 6 225 0.0 0.0 0.00 0.00 0.00 57 1000.7
20260508112529 5 270 0.0 0.0 0.00 0.00 0.00 59 1000.5
20260508112029 5 225 0.0 0.0 0.00 0.00 0.00 62 1000.6
20260508111529 5 225 0.0 0.0 0.00 0.00 0.00 63 1000.7
20260508111029 4 248 0.0 0.0 0.00 0.00 0.00 64 1000.6
20260508110530 4 270 0.0 0.0 0.00 0.00 0.00 66 1000.6
20260508110029 4 270 0.0 0.0 0.00 0.00 0.00 65 1000.5
20260508105529 4 225 0.0 0.0 0.00 0.00 0.00 64 1000.6
20260508105029 5 270 0.0 0.0 0.00 0.00 0.00 64 1000.3
20260508104529 5 270 0.0 0.0 0.00 0.00 0.00 63 1000.5
20260508104028 5 248 0.0 0.0 0.00 0.00 0.00 63 1000.5
20260508103524 5 248 0.0 0.0 0.00 0.00 0.00 62 1000.5
20260508103021 5 248 0.0 0.0 0.00 0.00 0.00 61 1000.4
20260508101502 5 225 0.0 0.0 0.00 0.00 0.00 60 1000.1
20260508100502 5 270 0.0 0.0 0.00 0.00 0.00 58 1000.2
20260508100002 6 203 0.0 0.0 0.00 0.00 0.00 57 1000.1
20260508095501 6 225 0.0 0.0 0.00 0.00 0.00 57 1000.2
20260508095001 6 248 0.0 0.0 0.00 0.00 0.00 57 1000.0
20260508094501 5 225 0.0 0.0 0.00 0.00 0.00 59 1000.1
20260508094001 5 248 0.0 0.0 0.00 0.00 0.00 59 1000.1
20260508093502 6 248 0.0 0.0 0.00 0.00 0.00 57 999.8
20260508093001 6 270 0.0 0.0 0.00 0.00 0.00 57 999.8
20260508092001 6 248 0.0 0.0 0.00 0.00 0.00 56 999.6
20260508091501 6 248 0.0 0.0 0.00 0.00 0.00 56 999.4
20260508091001 6 248 0.0 0.0 0.00 0.00 0.00 55 999.4
20260508090502 6 225 0.0 0.0 0.00 0.00 0.00 53 999.2
20260508090001 7 225 0.0 0.0 0.00 0.00 0.00 53 999.5
20260508085500 7 225 0.0 0.0 0.00 0.00 0.00 52 999.3
20260508084002 7 225 0.0 0.0 0.00 0.00 0.00 52 999.3
20260508083501 7 225 0.0 0.0 0.00 0.00 0.00 52 999.3
20260508083000 7 248 0.0 0.0 0.00 0.00 0.00 52 999.3
20260508082501 7 270 0.0 0.0 0.00 0.00 0.00 51 999.3
20260508082006 7 225 0.0 0.0 0.00 0.00 0.00 52 999.2
20260508081501 7 225 0.0 0.0 0.00 0.00 0.00 54 999.5
20260508080001 7 225 0.0 0.0 0.00 0.00 0.00 55 999.6
20260508075502 7 225 0.0 0.0 0.00 0.00 0.00 55 999.6
20260508075002 7 270 0.0 0.0 0.00 0.00 0.00 55 999.4
20260508074501 7 248 0.0 0.0 0.00 0.00 0.00 56 999.6
20260508074001 7 248 0.0 0.0 0.00 0.00 0.00 55 999.6
20260508073501 7 248 0.0 0.0 0.00 0.00 0.00 55 999.6
20260508073001 7 270 0.0 0.0 0.00 0.00 0.00 54 999.3
20260508072501 7 225 0.0 0.0 0.00 0.00 0.00 54 999.5
20260508072001 7 203 0.0 0.0 0.00 0.00 0.00 55 999.6
20260508071501 7 248 0.0 0.0 0.00 0.00 0.00 56 999.3
20260508071001 6 270 0.0 0.0 0.00 0.00 0.00 60 999.2
20260508070500 6 270 0.0 0.0 0.00 0.00 0.00 63 999.3
20260508065458 7 248 0.0 0.0 0.00 0.00 0.00 58 999.2
20260508064955 7 270 0.0 0.0 0.00 0.00 0.00 58 999.1
20260508064452 7 270 0.0 0.0 0.00 0.00 0.00 57 999.4
20260508062943 7 248 0.0 0.0 0.00 0.00 0.00 57 999.2
20260508062441 7 225 0.0 0.0 0.00 0.00 0.00 58 999.2
20260508061435 7 248 0.0 0.0 0.00 0.00 0.00 59 999.4
20260508060930 7 225 0.0 0.0 0.00 0.00 0.00 60 999.3
20260508060429 7 248 0.0 0.0 0.00 0.00 0.00 60 999.3
20260508055429 6 225 0.0 0.0 0.00 0.00 0.00 63 999.5
20260508054428 6 270 0.0 0.0 0.00 0.00 0.00 64 999.9
20260508053929 7 248 0.0 0.0 0.00 0.00 0.00 62 999.7
20260508053429 7 270 0.0 0.0 0.00 0.00 0.00 60 999.8
20260508052930 7 270 0.0 0.0 0.00 0.00 0.00 57 999.8
20260508052428 7 248 0.0 0.0 0.00 0.00 0.00 57 999.5
20260508051429 7 203 0.0 0.0 0.00 0.00 0.00 61 999.7
20260508050930 7 225 0.0 0.0 0.00 0.00 0.00 63 999.5
20260508050429 6 225 0.0 0.0 0.00 0.00 0.00 63 1000.0
20260508045929 7 248 0.0 0.0 0.00 0.00 0.00 63 999.8
20260508045428 7 203 0.0 0.0 0.00 0.00 0.00 63 999.6
20260508044929 6 248 0.0 0.0 0.00 0.00 0.00 64 999.6
20260508044430 6 270 0.0 0.0 0.00 0.00 0.00 64 999.6
20260508043930 6 225 0.0 0.0 0.00 0.00 0.00 64 999.7
20260508043430 6 293 0.0 0.0 0.00 0.00 0.00 64 999.8
20260508042929 7 225 0.0 0.0 0.00 0.00 0.00 64 999.7
20260508042429 7 248 0.0 0.0 0.00 0.00 0.00 63 999.7
20260508041930 7 248 0.0 0.0 0.00 0.00 0.00 63 999.3
20260508040929 7 248 0.0 0.0 0.00 0.00 0.00 64 999.4
20260508035428 7 225 0.0 0.0 0.00 0.00 0.00 62 999.2
20260508034929 7 248 0.0 0.0 0.00 0.00 0.00 61 998.9
20260508034429 7 225 0.0 0.0 0.00 0.00 0.00 62 999.0
20260508033929 6 248 0.0 0.0 0.00 0.00 0.00 65 998.8
20260508033429 6 248 0.0 0.0 0.00 0.00 0.00 67 998.9
20260508032929 6 270 0.0 0.0 0.00 0.03 0.00 69 998.6
20260508032430 6 225 0.0 0.0 0.00 0.03 0.00 68 998.5
20260508031930 6 248 0.0 0.0 0.00 0.03 0.00 68 998.5
20260508031429 6 248 0.0 0.0 0.00 0.05 0.00 68 998.5
20260508030931 6 270 0.0 0.0 0.00 0.23 0.00 68 998.8
20260508030430 6 248 0.0 0.0 0.00 0.46 0.00 68 998.8
20260508025430 6 225 0.0 0.0 0.00 0.69 0.61 70 998.8
20260508024930 6 225 0.0 0.0 0.00 0.71 0.61 71 998.7
20260508024428 6 270 0.0 0.0 0.00 0.79 0.61 70 998.5
20260508023925 6 225 0.0 0.0 0.00 0.99 0.61 69 998.6
20260508023422 6 248 0.0 0.0 0.00 1.17 0.61 70 998.7
20260508022417 6 248 0.0 0.0 0.00 1.32 0.61 70 998.6
20260508021914 6 293 0.0 0.0 0.00 1.70 0.61 72 998.8
20260508021432 5 270 0.0 0.0 0.00 1.85 0.61 75 998.6
20260508020908 4 270 0.0 0.0 0.00 2.34 0.61 78 998.4
20260508020402 4 270 0.0 0.0 0.00 2.44 0.61 77 998.4
20260508015901 4 293 0.0 0.0 0.00 2.44 0.61 76 998.5
20260508015401 4 293 0.0 0.0 0.00 2.44 0.61 74 998.6
20260508014901 5 315 0.0 0.0 0.00 2.44 0.61 71 998.6
20260508014410 5 293 0.0 0.0 0.00 2.44 0.61 68 998.6
20260508013401 6 293 0.0 0.0 0.00 2.44 0.61 65 998.2
20260508012902 5 293 0.0 0.0 0.00 2.44 0.61 68 998.2
20260508012401 4 270 0.0 0.0 0.00 2.44 0.61 79 998.0
20260508011901 5 270 0.0 0.0 0.00 2.44 0.61 76 998.0
20260508011401 6 270 0.0 0.0 0.00 2.44 0.61 71 997.4
20260508010901 6 270 0.0 0.0 0.00 2.44 0.61 65 997.7
20260508010402 6 270 0.0 0.0 0.00 2.44 0.61 65 997.9
20260508005401 6 270 0.0 0.0 0.00 2.44 0.61 68 998.0
20260508004901 6 270 0.0 0.0 0.00 2.44 0.61 67 997.8
20260508004401 7 270 0.0 0.0 0.00 2.44 0.61 65 997.8
20260508003901 7 270 0.0 0.0 0.00 2.44 0.61 65 998.1
20260508003401 7 270 0.0 0.0 0.00 2.44 0.61 64 998.0
20260508002901 7 248 0.0 0.0 0.00 2.44 0.61 60 998.0
20260508002402 7 248 0.0 0.0 0.00 2.44 0.61 62 997.9
20260508001402 7 248 0.0 0.0 0.00 2.44 0.61 63 998.1
20260508000901 7 248 0.0 0.0 0.00 2.44 0.61 63 998.1
20260508000401 7 248 0.0 0.0 0.00 2.44 0.61 64 998.2
20260507234901 7 248 0.0 0.0 0.00 2.44 0.61 64 997.9
20260507234402 7 270 0.0 0.0 0.00 2.44 0.61 64 997.8
20260507233901 7 270 0.0 0.0 0.00 2.44 0.61 63 997.7
20260507233401 7 270 0.0 0.0 0.00 2.44 0.61 63 997.8
20260507232901 8 270 0.0 0.0 0.00 2.44 0.61 62 997.8
20260507232400 8 293 0.0 0.0 0.00 2.44 0.61 62 997.7
20260507231902 8 270 0.0 0.0 0.00 2.44 0.61 62 997.8
20260507231401 9 270 0.0 0.0 0.00 2.44 0.61 58 997.6
20260507230902 10 248 0.0 0.0 0.00 2.44 0.61 57 997.4
20260507230401 10 248 0.0 0.0 0.00 2.44 0.61 56 997.5
20260507225900 10 270 0.0 0.0 0.00 2.44 0.61 54 997.4
20260507225402 10 248 0.0 0.0 0.00 2.44 0.61 54 997.2
20260507224901 10 248 0.0 0.0 0.00 2.44 0.61 53 997.2
20260507224401 10 225 0.0 0.0 0.00 2.44 0.61 52 997.0
20260507223901 11 248 0.0 0.0 0.00 2.44 0.61 52 997.0
20260507223401 11 248 0.0 0.0 0.00 2.44 0.61 50 996.9
20260507222901 12 225 0.0 0.0 0.00 2.44 0.61 49 996.7
20260507222402 12 225 0.0 0.0 0.00 2.44 0.61 48 996.8
20260507221401 12 248 0.0 0.0 0.00 2.44 0.61 47 996.6
20260507215902 13 225 0.0 0.0 0.00 2.44 0.61 46 996.4
20260507215402 13 248 0.0 0.0 0.00 2.44 0.61 45 996.5